Location: Ferintosh
(52.7647°N, 112.9692°W)
Time: 05:26:03
(UTC+00:00)

S-56A Canister/Altair - Pass Details

Date: 24 May 2024
Orbit: 637 x 2489 km, 38.9° (Epoch: 20 June)

Event Time Altitude Azimuth Distance (km) Brightness Sun altitude
Rises 18:03:25 0° 267° (W) 4,928 11.5 54.2°
Reaches altitude 10° 18:08:14 10° 252° (WSW) 3,547 10.9 54.6°
Maximum altitude 18:13:34 18° 214° (SW) 2,533 10.6 55.1°
Drops below altitude 10° 18:17:51 10° 173° (S) 2,732 11.0 55.4°
Sets 18:20:56 0° 154° (SSE) 3,432 11.4 55.6°
